ZHONGXING-2D

Last updated on Wed Nov 20 2024 00:02:42 GMT+0000 (Coordinated Universal Time)

1 43920U 19001A 24324.56589252 -.00000336 00000+0 00000+0 0 9997 2 43920 0.0277 266.7276 0002295 335.4847 150.5499 1.00266757 48317
UTC large
Height (km)
Speed (km/s)
/
Latitude / Longitude
Inclination (degrees)
Orbital Period (minutes)
Azimuth
Elevation
Range (km)
Doppler Factor

Next 0 passes for location: London (51.5072 / 0.1276)

Sorry there are no passes over London.